GOES 7 [-]

Last updated on Jan. 23, 2021, 7:09 a.m. UTC

1 17561U 87022A   21022.60977962  .00000105  00000-0  00000-0 0  9998
2 17561  14.6394 352.9415 0007394  15.0950 185.5994  0.99898759107262
UTC
Height (km)
Latitude
Longitude
Inclination
Orbital Period
UTC large
Height (km)
Speed (km/s)
/
Latitude / Longitude
Inclination (degrees)
Orbital Period (minutes)
Azimuth
Elevation
Range (km)
Doppler Factor
iOS Compass Heading
iOS Angle

Next 30 passes for location: Hong Kong

Rise time Rise Azimuth (degrees) Set time Set Azimuth (degrees) Duration Max altitude (degrees)

No matching passes for this satellites